AirNav   Air Wisconsin pilot careers
 
 904 users online  

K64 Vinland Valley Aerodrome
Baldwin City, Kansas, USA

GOING TO BALDWIN CITY?


FAA INFORMATION EFFECTIVE 08 NOVEMBER 2018

Location

FAA Identifier: K64
Lat/Long: 38-50-10.0700N / 095-10-55.3300W
38-50.167833N / 095-10.922167W
38.8361306 / -95.1820361
(estimated)
Elevation: 890 ft. / 271 m (estimated)
Variation: 05E (1985)
From city: 3 miles N of BALDWIN CITY, KS
Time zone: UTC -6 (UTC -5 during Daylight Saving Time)
Zip code: 66006

Airport Operations

Airport use: Open to the public
Activation date: 10/1969
Control tower: no
ARTCC: KANSAS CITY CENTER
FSS: WICHITA FLIGHT SERVICE STATION
NOTAMs facility: ICT (NOTAM-D service available)
Attendance: MON-THURS 0730-1730, ALL FRIDAY 0730-1700
Wind indicator: yes
Segmented circle: no
Lights: DUSK-DAWN. ACTVT LIRL RY 16/34 - CTAF 3 CLICKS

Airport Communications

CTAF: 122.9
WX ASOS at LWC (11 nm N): 121.225 (785-749-1309)
WX ASOS at IXD (14 nm E): 135.325 (913-780-6987)
WX AWOS-3 at OWI (18 nm S): 118.25 (785-242-2185)

Nearby radio navigation aids

VOR radial/distance  VOR name  Freq  Var
TOPr132/24.9TOPEKA VORTAC117.8005E
MCIr213/34.0KANSAS CITY VORTAC113.2505E

 
NDB name  Hdg/Dist  Freq  Var  ID
NEWBN192/4.833804EJZ .--- --..

Airport Services

Fuel available: 100LL
FUEL ONLY AVLB OP HRS OR W/PRIOR ARRANGEMENT
Parking: tiedowns

Runway Information

Runway 16/34

Dimensions: 3030 x 80 ft. / 924 x 24 m
Surface: turf, in excellent condition
Runway edge lights: non-standard
NSTD LIRL.
RUNWAY 16  RUNWAY 34
Traffic pattern: leftleft
Obstructions: 33 ft. tree, 427 ft. from runway, 88 ft. left of centerline, 13:1 slope to clearnone

Airport Ownership and Management from official FAA records

Ownership: Privately-owned
Owner: K64 LLC
696 E. 1700 RD.
BALDWIN CITY, KS 66006
Phone 785-594-2741
Manager: CHERYL KURTZ
696 E. 1700 RD
BALDWIN CITY, KS 66006
Phone 785-594-2741

Airport Operational Statistics

Aircraft based on the field: 22
Single engine airplanes: 22
    
Aircraft operations: avg 105/week *
91% local general aviation
9% transient general aviation
* for 12-month period ending 31 August 2018

Additional Remarks

TALL TREES L SIDE AER 16.
PATTERN ALTITUDE: FIXED WING AIRCRAFT: 1690 MSL.

Instrument Procedures

There are no published instrument procedures at K64.

Some nearby airports with instrument procedures:

KLWC - Lawrence Municipal Airport (11 nm N)
KIXD - New Century AirCenter Airport (14 nm E)
KOWI - Ottawa Municipal Airport (18 nm S)
KOJC - Johnson County Executive Airport (21 nm E)
K81 - Miami County Airport (22 nm SE)
 
Loc | Ops | Rwys | IFR | FBO | Links
Com | Nav | Svcs | Stats | Notes

Kansas City Aviation Department
 
Area around K64 (Vinland Valley Aerodrome)
 
Road maps at: MapQuest Bing Google
 
Aerial photo
WARNING: Photo may not be current or correct
Aerial photo of K64 (Vinland Valley Aerodrome)
Photo © Jon Blumb, 2004
Photo taken 29-Sep-2004

Do you have a better or more recent aerial photo of Vinland Valley Aerodrome that you would like to share? If so, please send us your photo.

 
Sectional chart

 
Airport distance calculator
Flying to Vinland Valley Aerodrome? Find the distance to fly.

From to K64

Sunrise and sunset
Times for 18-Nov-2018
 Local
(UTC-6)
 Zulu
(UTC)
Morning civil twilight06:3912:39
Sunrise07:0813:08
Sunset17:0423:04
Evening civil twilight17:3323:33

Current date and time
Zulu (UTC)  18-Nov-2018 21:38:57
Local (UTC-6)  18-Nov-2018 15:38:57
 
METAR
KLWC 
11nm N 
182052Z AUTO 34006KT 10SM OVC017 01/M06 A3026 RMK AO2 SLP254 T00111056 56029 TSNO
KIXD 
14nm E 
182118Z 33007KT 10SM BKN014 01/M03 A3023 RMK AO2 T00061033
KOWI 
18nm S 
182115Z AUTO 32007KT 10SM OVC020 01/M03 A3023 RMK AO2
KOJC 
21nm E 
182053Z 36008KT 10SM SCT014 01/M04 A3023 RMK AO2 SLP246 T00111039 56014
TAF
KIXD 
14nm E 
182006Z 1820/1918 35006KT P6SM OVC020 TEMPO 1820/1822 FEW250 FM182200 VRB04KT P6SM SKC FM191500 27006KT P6SM BKN150
NOTAMs
Click for the latest NOTAMs
NOTAMs are issued by the DoD/FAA and will open in a separate window not controlled by AirNav.

 

 
 

FBO, Fuel Providers, and Aircraft Ground Support

  
 Business Name 
 
 Contact 
 
 Services / Description 
 
Fuel Prices
 
Comments
  
Vinland Valley Aerodrome 785-594-2741
no information available

If you are affiliated with Vinland Valley Aerodrome and would like to show here your services, contact info, web link, logo, and more, click here
100LL
SS $4.53 
 Updated 09-Nov-2018
 
   1 read write
SS=Self service
Update Fuel Prices
 

Would you like to see your business listed on this page?

 If your business provides an interesting product or service to pilots, flight crews, aircraft, or users of the Vinland Valley Aerodrome, you should consider listing it here.  To start the listing process, click on the button below
 
Add a business
 

Other Pages about Vinland Valley Aerodrome

Update a link
 
Copyright © AirNav, LLC. All rights reserved. Privacy Policy  Contact